Location: Newark
(37.7733°N, 97.7642°W)
Time: 18:24:27
(UTC+00:00)

OTV 5 (USA 277) - Visible Passes

Search period start: 20 August 2019 00:00
Search period end: 30 August 2019 00:00
Orbit: 305 x 329 km, 54.5° (Epoch: 11 August)

Date Brightness Start Highest point End Pass type
(mag) Time Alt. Az. Time Alt. Az. Time Alt. Az.
20 Aug ? 11:21:03 10° NW 11:23:41 66° NE 11:26:19 10° SE visible
21 Aug ? 10:02:08 10° N 10:03:46 15° NNE 10:05:25 10° ENE visible
22 Aug ? 10:16:19 12° NNW 10:18:29 35° NE 10:20:58 10° ESE visible
23 Aug ? 02:34:32 10° SSW 02:35:55 25° S 02:35:55 25° S visible
23 Aug ? 10:32:45 55° W 10:33:03 62° SW 10:35:40 10° SE visible
24 Aug ? 02:49:01 10° WSW 02:51:36 48° NW 02:52:19 35° N visible
25 Aug ? 03:04:20 10° W 03:06:17 18° NW 03:07:55 12° N visible
26 Aug ? 01:43:46 10° SW 01:46:27 87° SE 01:49:06 10° NE visible
27 Aug ? 01:58:40 10° WSW 02:01:02 28° NW 02:03:24 10° NNE visible
28 Aug ? 02:14:30 10° WNW 02:15:48 13° NNW 02:17:05 10° N visible
